Time,TemperatureF,DewpointF,PressureIn,WindDirection,WindDirectionDegrees,WindSpeedMPH,WindSpeedGustMPH,Humidity,HourlyPrecipIn,Conditions,Clouds,dailyrainin,SoftwareType,DateUTC
2013-11-06 00:01:00,39.0,20.0,-100.00,North,7,0.0,1.0,46,0.00,,,-99.99,,2013-11-06 08:01:00,
2013-11-06 00:22:00,39.0,21.0,-100.00,NNW,340,0.0,2.0,49,0.00,,,-99.99,,2013-11-06 08:22:00,
2013-11-06 00:32:00,39.0,21.0,-100.00,NNW,340,0.0,2.0,49,0.00,,,-99.99,,2013-11-06 08:32:00,
2013-11-06 01:22:00,41.0,21.0,-100.00,WSW,247,1.0,5.0,44,0.00,,,-99.99,,2013-11-06 09:22:00,
2013-11-06 01:43:00,40.0,21.0,-100.00,West,267,1.0,3.0,47,0.00,,,-99.99,,2013-11-06 09:43:00,
2013-11-06 01:53:00,42.0,15.0,-100.00,WNW,284,0.0,2.0,33,0.00,,,-99.99,,2013-11-06 09:53:00,
2013-11-06 02:03:00,42.0,15.0,-100.00,WNW,284,0.0,2.0,33,0.00,,,-99.99,,2013-11-06 10:03:00,
2013-11-06 02:23:00,41.0,19.0,-100.00,West,274,0.0,2.0,41,0.00,,,-99.99,,2013-11-06 10:23:00,
2013-11-06 02:42:00,40.0,18.0,-100.00,NE,34,1.0,3.0,40,0.00,,,-99.99,,2013-11-06 10:42:00,
2013-11-06 03:12:00,40.0,16.0,-100.00,SW,215,1.0,2.0,38,0.00,,,-99.99,,2013-11-06 11:12:00,
2013-11-06 03:42:00,40.0,18.0,-100.00,NW,304,0.0,2.0,40,0.00,,,-99.99,,2013-11-06 11:42:00,
2013-11-06 03:52:00,41.0,18.0,-100.00,NW,309,0.0,1.0,39,0.00,,,-99.99,,2013-11-06 11:52:00,
2013-11-06 04:02:00,41.0,18.0,-100.00,NW,309,0.0,1.0,39,0.00,,,-99.99,,2013-11-06 12:02:00,
2013-11-06 04:12:00,41.0,18.0,-100.00,NW,309,0.0,1.0,39,0.00,,,-99.99,,2013-11-06 12:12:00,
2013-11-06 04:42:00,38.0,19.0,-100.00,West,265,1.0,2.0,46,0.00,,,-99.99,,2013-11-06 12:42:00,
2013-11-06 05:11:00,39.0,19.0,-100.00,NNW,332,0.0,1.0,44,0.00,,,-99.99,,2013-11-06 13:11:00,
2013-11-06 05:42:00,40.0,19.0,-100.00,North,11,1.0,3.0,43,0.00,,,-99.99,,2013-11-06 13:42:00,
2013-11-06 06:11:00,39.0,19.0,-100.00,North,-999,0.0,0.0,44,0.00,,,-99.99,,2013-11-06 14:11:00,
2013-11-06 06:22:00,39.0,19.0,-100.00,South,179,0.0,1.0,44,0.00,,,-99.99,,2013-11-06 14:22:00,
2013-11-06 06:42:00,39.0,19.0,-100.00,North,360,0.0,3.0,44,0.00,,,-99.99,,2013-11-06 14:42:00,
2013-11-06 06:52:00,39.0,19.0,-100.00,North,352,0.0,1.0,45,0.00,,,-99.99,,2013-11-06 14:52:00,
2013-11-06 07:01:00,39.0,19.0,-100.00,North,352,0.0,1.0,45,0.00,,,-99.99,,2013-11-06 15:01:00,
2013-11-06 07:22:00,40.0,19.0,-100.00,South,179,0.0,1.0,43,0.00,,,-99.99,,2013-11-06 15:22:00,
2013-11-06 07:33:00,40.0,19.0,-100.00,South,179,0.0,1.0,43,0.00,,,-99.99,,2013-11-06 15:33:00,
2013-11-06 07:53:00,40.0,19.0,-100.00,NNE,16,0.0,3.0,43,0.00,,,-99.99,,2013-11-06 15:53:00,
2013-11-06 08:03:00,40.0,19.0,-100.00,NNE,16,0.0,3.0,43,0.00,,,-99.99,,2013-11-06 16:03:00,
2013-11-06 08:23:00,41.0,19.0,-100.00,SSW,198,4.0,6.0,41,0.00,,,-99.99,,2013-11-06 16:23:00,
2013-11-06 09:12:00,45.0,20.0,-100.00,SSE,151,3.0,5.0,37,0.00,,,-99.99,,2013-11-06 17:12:00,
2013-11-06 09:22:00,46.0,19.0,-100.00,SSE,164,3.0,5.0,34,0.00,,,-99.99,,2013-11-06 17:22:00,
2013-11-06 09:33:00,46.0,19.0,-100.00,SSE,164,3.0,5.0,34,0.00,,,-99.99,,2013-11-06 17:33:00,
2013-11-06 09:43:00,46.0,19.0,-100.00,SSE,164,3.0,5.0,34,0.00,,,-99.99,,2013-11-06 17:43:00,
2013-11-06 11:42:00,52.0,18.0,-100.00,SE,124,1.0,5.0,26,0.00,,,-99.99,,2013-11-06 19:42:00,
2013-11-06 12:22:00,55.0,20.0,-100.00,SE,141,3.0,5.0,25,0.00,,,-99.99,,2013-11-06 20:22:00,
2013-11-06 13:11:00,56.0,20.0,-100.00,ESE,109,2.0,7.0,24,0.00,,,-99.99,,2013-11-06 21:11:00,
2013-11-06 13:21:00,59.0,21.0,-100.00,NE,44,1.0,4.0,23,0.00,,,-99.99,,2013-11-06 21:21:00,
2013-11-06 13:43:00,59.0,22.0,-100.00,SE,128,3.0,7.0,24,0.00,,,-99.99,,2013-11-06 21:43:00,
2013-11-06 14:14:00,59.0,21.0,-100.00,SSE,158,4.0,7.0,23,0.00,,,-99.99,,2013-11-06 22:14:00,
2013-11-06 14:23:00,60.0,22.0,-100.00,South,185,4.0,10.0,23,0.00,,,-99.99,,2013-11-06 22:23:00,
2013-11-06 14:43:00,60.0,22.0,-100.00,SE,137,3.0,5.0,23,0.00,,,-99.99,,2013-11-06 22:43:00,
2013-11-06 14:53:00,60.0,21.0,-100.00,East,97,2.0,4.0,22,0.00,,,-99.99,,2013-11-06 22:53:00,
2013-11-06 15:42:00,59.0,21.0,-100.00,NE,54,2.0,5.0,23,0.00,,,-99.99,,2013-11-06 23:42:00,
2013-11-06 15:53:00,59.0,22.0,-100.00,ENE,78,1.0,3.0,24,0.00,,,-99.99,,2013-11-06 23:53:00,
2013-11-06 16:02:00,59.0,22.0,-100.00,ENE,78,1.0,3.0,24,0.00,,,-99.99,,2013-11-07 00:02:00,
2013-11-06 16:11:00,59.0,22.0,-100.00,ENE,78,1.0,3.0,24,0.00,,,-99.99,,2013-11-07 00:11:00,
2013-11-06 16:22:00,58.0,21.0,-100.00,ENE,68,1.0,4.0,24,0.00,,,-99.99,,2013-11-07 00:22:00,
2013-11-06 16:42:00,56.0,23.0,-100.00,South,185,2.0,3.0,27,0.00,,,-99.99,,2013-11-07 00:42:00,
2013-11-06 16:52:00,53.0,22.0,-100.00,SSW,196,0.0,2.0,29,0.00,,,-99.99,,2013-11-07 00:52:00,
2013-11-06 17:01:00,53.0,22.0,-100.00,SSW,196,0.0,2.0,29,0.00,,,-99.99,,2013-11-07 01:01:00,
2013-11-06 17:11:00,53.0,22.0,-100.00,SSW,196,0.0,2.0,29,0.00,,,-99.99,,2013-11-07 01:11:00,
2013-11-06 17:21:00,53.0,22.0,-100.00,SSW,196,0.0,2.0,29,0.00,,,-99.99,,2013-11-07 01:21:00,
2013-11-06 17:42:00,51.0,22.0,-100.00,North,0,0.0,2.0,32,0.00,,,-99.99,,2013-11-07 01:42:00,
2013-11-06 18:11:00,48.0,22.0,-100.00,WSW,246,1.0,3.0,36,0.00,,,-99.99,,2013-11-07 02:11:00,
2013-11-06 18:22:00,47.0,22.0,-100.00,West,271,0.0,2.0,37,0.00,,,-99.99,,2013-11-07 02:22:00,
2013-11-06 18:53:00,47.0,23.0,-100.00,WSW,237,1.0,2.0,38,0.00,,,-99.99,,2013-11-07 02:53:00,
2013-11-06 19:12:00,46.0,22.0,-100.00,WNW,295,0.0,1.0,38,0.00,,,-99.99,,2013-11-07 03:12:00,
2013-11-06 19:21:00,46.0,22.0,-100.00,WNW,295,0.0,1.0,38,0.00,,,-99.99,,2013-11-07 03:21:00,
2013-11-06 19:44:00,47.0,21.0,-100.00,West,278,0.0,1.0,36,0.00,,,-99.99,,2013-11-07 03:44:00,
2013-11-06 20:13:00,48.0,24.0,-100.00,WSW,247,0.0,2.0,38,0.00,,,-99.99,,2013-11-07 04:13:00,
2013-11-06 20:24:00,47.0,28.0,-100.00,WSW,251,3.0,6.0,48,0.00,,,-99.99,,2013-11-07 04:24:00,
2013-11-06 20:43:00,46.0,29.0,-100.00,SSW,192,2.0,4.0,51,0.00,,,-99.99,,2013-11-07 04:43:00,
2013-11-06 20:53:00,47.0,26.0,-100.00,West,270,3.0,5.0,44,0.00,,,-99.99,,2013-11-07 04:53:00,
2013-11-06 21:03:00,47.0,26.0,-100.00,West,270,3.0,5.0,44,0.00,,,-99.99,,2013-11-07 05:03:00,
2013-11-06 21:13:00,47.0,26.0,-100.00,West,270,3.0,5.0,44,0.00,,,-99.99,,2013-11-07 05:13:00,
2013-11-06 21:44:00,47.0,29.0,-100.00,WSW,257,1.0,4.0,49,0.00,,,-99.99,,2013-11-07 05:44:00,
2013-11-06 22:13:00,47.0,30.0,-100.00,SW,220,2.0,4.0,51,0.00,,,-99.99,,2013-11-07 06:13:00,
2013-11-06 22:23:00,47.0,30.0,-100.00,SW,230,2.0,5.0,52,0.00,,,-99.99,,2013-11-07 06:23:00,
2013-11-06 22:32:00,47.0,30.0,-100.00,SW,230,2.0,5.0,52,0.00,,,-99.99,,2013-11-07 06:32:00,
2013-11-06 22:42:00,47.0,30.0,-100.00,SW,230,2.0,5.0,52,0.00,,,-99.99,,2013-11-07 06:42:00,
2013-11-06 22:52:00,48.0,30.0,-100.00,SW,219,3.0,7.0,50,0.00,,,-99.99,,2013-11-07 06:52:00,
2013-11-06 23:02:00,48.0,30.0,-100.00,SW,219,3.0,7.0,50,0.00,,,-99.99,,2013-11-07 07:02:00,
2013-11-06 23:42:00,47.0,30.0,-100.00,SW,230,2.0,5.0,52,0.00,,,-99.99,,2013-11-07 07:42:00,